Regional Weather Roundup
Issued by NWS Sterling, VA

Home | Current Version | Previous Version | Graphics & Text | Print | Product List | Glossary On
Versions: 1 2 3 4 5 6 7 8 9 10 11 12 13 14 15 16 17 18 19 20 21 22 23 24 25 26 27 28 29 30 31 32 33 34 35 36 37 38 39 40 41 42 43 44 45 46 47 48 49 50
438
ASUS41 KLWX 280611
RWRLWX

REGIONAL WEATHER ROUNDUP
NATIONAL WEATHER SERVICE BALTIMORE MD/WASHINGTON DC
200 AM EDT FRI JUL 28 2017

Note: "FAIR" indicates few or no clouds below 12,000 feet
with no significant weather and/or obstructions to visibility.
 TC=TEMPERATURE CELSIUS

 * =Non NWS site. Station does not report precipitation (e.g. rain,
    snow, etc.), thunder, or fog.

DCZ001-MDZ009-015-VAZ040>042-051-053>054-280700-
WASHINGTON METRO

CITY           SKY/WX    TMP DP  RH WIND       PRES   REMARKS
WASHINGTON NAT LGT RAIN  79  74  84 W5        29.83F
DULLES         PTCLDY    73  71  93 CALM      29.84F
ANDREWS AFB    CLEAR     73  72  96 SW3       29.83F
FT BELVOIR     PTCLDY    75  73  93 NW3       29.82F
QUANTICO       CLEAR     76  73  91 CALM      29.84F
COLLEGE PARK*  MOCLDY    73  70  88 CALM      29.83F
LEESBURG*      PTCLDY    73  73 100 CALM      29.86F
MANASSAS*      CLEAR     72  71  97 CALM      29.84F
GAITHERSBURG*  PTCLDY    73  72  96 CALM      29.86F FOG

$$

MDZ006>007-011-014-280700-
BALTIMORE METRO

CITY           SKY/WX    TMP DP  RH WIND       PRES   REMARKS
BWI AIRPORT    MOCLDY    75  72  90 CALM      29.83F
MD SCIENCE CTR   N/A     80  74  81 MISG      29.83F
MARTIN STATE   PTCLDY    77  77 100 CALM      29.84F
ANNAPOLIS      MOCLDY    79  78  97 CALM      29.82F
FORT MEADE*    CLEAR     70  68  94 CALM      29.86S

$$

MDZ012-015-019>023-280700-
MARYLAND EASTERN SHORE

CITY           SKY/WX    TMP DP  RH WIND       PRES   REMARKS
OCEAN CITY     PTCLDY    77  73  87 W6        29.84S
SALISBURY      CLEAR     73  72  96 SW6       29.83F
BAY BRIDGE AP* MOCLDY    75  72  88 CALM      29.83S
CAMBRIDGE*     CLEAR     72  72 100 CALM      29.82F
EASTON*        PTCLDY    75  73  92 CALM      29.86F

$$

MDZ017>025-280700-
SOUTHERN MARYLAND

CITY           SKY/WX    TMP DP  RH WIND       PRES   REMARKS
PATUXENT RIVER PTCLDY    76  71  85 SW8       29.81F
ST INIGOES     CLOUDY    78  71  79 W6        29.82F
LEONARDTOWN*   CLEAR     73  68  83 W5        29.84F

$$

MDZ003>005-280700-
NORTH CENTRAL MARYLAND

CITY           SKY/WX    TMP DP  RH WIND       PRES   REMARKS
FREDERICK*     CLEAR     72  72 100 CALM      29.87F FOG
HAGERSTOWN APT MOCLDY    74  69  85 W6        29.86F
WESTMINSTER*   PTCLDY    73  70  88 CALM      29.87S

$$

MDZ501>502-280700-
WESTERN MARYLAND

CITY           SKY/WX    TMP DP  RH WIND       PRES   REMARKS
OAKLAND*       MOCLDY    63  63 100 CALM      29.95F
CUMBERLAND*    CLEAR     68  68 100 CALM      29.93S

$$

VAZ025>031-280700-
SHENANDOAH VALLEY

CITY           SKY/WX    TMP DP  RH WIND       PRES   REMARKS
WINCHESTER*    CLEAR     66  64  94 CALM      29.87F FOG
FRONT ROYAL*   CLEAR     68  68 100 CALM      29.87S
LURAY*         PTCLDY    68  68 100 CALM      29.89S FOG
NEW MARKET*    CLOUDY    67  66  97 CALM      29.89F VSB 1/4
STAUNTON*      CLOUDY    71  68  92 CALM      29.92F
WAYNESBORO*    CLOUDY    72  68  88 CALM      29.92S

$$

WVZ021-048>050-054>055-280700-
EASTERN WEST VIRGINIA PANHANDLE

CITY           SKY/WX    TMP DP  RH WIND       PRES   REMARKS
MARTINSBURG    PTCLDY    69  67  93 CALM      29.86S FOG
PETERSBURG*    FOG       71  70  98 CALM      29.91R VSB 1/2

$$

VAZ036>039-050-280700-
CENTRAL FOOTHILLS

CITY           SKY/WX    TMP DP  RH WIND       PRES   REMARKS
CHARLOTTESVILL CLOUDY    75  72  90 S6        29.86F
CULPEPER*      FOG       70  70 100 CALM      29.86S VSB 1/2
ORANGE*        PTCLDY    68  68 100 CALM      29.86S FOG
GORDONSVILLE*  CLOUDY    71  71 100 SW3       29.86S
WARRENTON*     CLEAR     69  66  90 CALM      29.85S FOG

$$

VAZ055>057-280700-
NORTH AND CENTRAL PIEDMONT

CITY           SKY/WX    TMP DP  RH WIND       PRES   REMARKS
FREDERICKSBRG* CLEAR     73  72  97 SW5       29.83F
STAFFORD*      CLEAR     70  70 100 CALM      29.88F

$$

NCZ024-NYZ072-PAZ021-071-VAZ022-071-280700-
OTHER REGIONAL OBSERVATIONS

CITY           SKY/WX    TMP DP  RH WIND       PRES   REMARKS
NEW YORK CITY  CLEAR     73  69  87 CALM      29.88F
PHILADELPHIA   PTCLDY    72  70  93 CALM      29.86S
PITTSBURGH     CLOUDY    71  70  96 CALM      29.89F
ROANOKE        CLOUDY    72  70  93 W5        29.93F
RICHMOND       CLOUDY    74  69  85 SW3       29.86S
RALEIGH        MOCLDY    78  74  87 S7        29.90F

$$

ANZ530>537-280700-
MARINE OBSERVATIONS

STATION/POSITION TIME  TEMP    WIND        PRES
                       AIR SEA DIR/SP/G
                 (UTC) (F)     (DEG/KT/KT) (MB)
THOMAS PT LIGHT  0600   79 81  230/  4/  5   N/A
BALT KEY BRIDGE  0548          150/  4/  5 1009.8F
COVE POINT       0548          270/  9/ 12 1010.1F
LEWISETTA        0548          270/  9/ 10 1009.8F
SOLOMONS ISLAND  0548          280/  3/  9   N/A
PINEY POINT      0548          260/  5/  6   N/A

$$





USA.gov is the U.S. government's official web portal to all federal, state and local government web resources and services.